Theta_e
349 347 352 354 354 352 352 353 353 353 351 351 351 352 351 352 349 350 343 338 336 335 340 346 346 346 348 342 338 344 348 348 344 343 340 333 337 336
351 350 349 353 353 354 354 353 353 351 352 352 350 351 351 351 351 352 349 338 335 338 337 346 346 345 348 347 341 340 346 347 345 343 342 334 338 335
352 353 354 348 354 354 354 353 353 353 350 348 352 351 352 355 353 348 347 343 343 338 347 346 344 345 349 348 346 342 342 348 346 344 342 339 336 336
353 354 354 351 353 354 353 354 354 355 354 355 355 353 355 353 353 349 349 345 346 342 343 343 343 344 344 348 348 346 342 344 347 345 343 341 335 335
354 354 354 353 355 353 354 354 354 355 356 355 355 355 355 355 353 353 353 352 348 347 344 344 343 344 341 342 346 348 346 343 344 344 343 342 338 333
349 351 349 349 350 352 352 353 352 351 353 355 355 353 355 355 354 353 352 351 352 350 346 348 348 346 340 338 343 345 348 346 343 343 343 342 341 335
352 351 351 350 350 350 352 350 354 350 350 351 351 352 351 352 353 352 352 351 350 353 351 347 346 347 346 346 344 344 344 348 347 343 342 342 341 339
351 352 349 351 351 351 351 351 352 353 356 352 353 353 355 353 350 350 349 348 346 344 351 345 346 347 347 348 345 342 343 344 347 349 343 341 341 341
356 356 355 352 352 354 352 349 350 350 352 352 354 355 354 353 354 353 352 354 353 351 352 351 347 347 348 350 343 345 343 339 342 346 348 344 341 341
353 353 353 354 354 352 353 354 354 354 352 351 351 353 354 355 355 354 354 353 353 353 355 354 350 351 351 350 346 345 341 342 343 346 349 349 345 342
349 348 349 353 351 350 350 353 354 354 352 351 351 351 351 351 350 349 353 354 353 352 354 355 352 353 352 352 350 345 345 343 344 346 345 348 350 347
343 343 344 345 345 344 344 344 351 352 351 351 351 353 353 353 351 351 351 353 352 352 353 354 353 353 353 351 352 351 348 347 347 347 347 347 347 348
328 328 328 323 324 324 327 328 329 327 333 337 343 346 347 348 349 350 352 351 350 350 350 351 353 352 353 353 352 352 352 352 350 348 348 348 347 347
327 326 325 323 324 325 325 324 323 322 330 332 334 336 338 340 341 344 346 348 349 349 350 352 352 352 351 352 352 351 351 352 353 351 350 349 348 348
321 321 321 321 322 324 322 325 329 333 334 334 335 336 338 339 342 343 344 346 348 348 348 350 349 350 350 351 350 350 350 352 352 353 351 350 350 345
317 318 319 320 321 320 322 325 329 331 331 332 331 329 331 331 332 334 336 340 343 344 343 346 349 348 349 349 349 349 349 350 351 352 353 352 350 349
314 319 319 320 321 322 323 325 328 328 325 323 324 325 324 324 325 326 328 330 337 340 343 343 343 342 342 344 348 349 349 349 349 350 351 352 352 350
313 316 317 317 318 319 321 322 324 325 324 323 323 321 321 322 321 322 323 325 327 328 332 334 334 337 342 345 344 346 348 349 348 348 349 350 350 350
312 313 315 316 317 318 319 321 322 323 321 321 321 320 321 320 319 320 320 321 322 322 321 321 323 328 338 341 341 343 342 342 343 344 345 346 348 348
308 311 314 315 315 315 316 316 316 316 316 318 317 317 318 318 318 319 319 319 319 318 318 319 320 322 327 328 329 331 336 340 340 341 342 343 343 344
306 308 308 310 311 312 312 312 312 312 311 313 315 315 313 311 312 314 315 315 315 316 317 317 316 316 318 321 325 326 326 333 336 338 340 340 341 342
301 301 302 304 306 309 309 310 310 310 310 310 310 310 311 310 309 309 311 311 311 312 314 314 314 315 316 317 320 322 325 326 328 332 334 337 340 344
298 298 298 299 301 301 302 303 304 305 306 306 307 307 307 306 306 306 306 306 308 309 310 311 313 313 313 315 316 317 321 325 326 328 329 330 335 335
Wind_Speed
2 0 1 1 2 2 3 3 4 5 4 4 6 10 12 11 10 11 14 16 16 16 13 10 12 14 15 13 6 6 14 14 13 15 15 20 19 20
3 3 2 1 2 1 0 0 2 5 5 7 9 11 12 11 11 11 12 13 15 16 12 8 10 12 11 11 8 4 9 13 12 14 13 18 22 20
7 6 6 6 5 4 3 3 3 4 8 8 8 10 10 11 10 12 11 11 11 14 9 8 10 12 10 8 7 3 5 15 14 15 15 16 22 21
7 7 8 7 7 6 5 4 4 4 5 7 8 10 9 11 12 12 13 10 9 10 6 10 11 12 12 8 5 4 1 6 17 15 19 17 20 23
9 9 8 7 6 6 5 6 5 5 6 8 9 9 10 9 13 12 12 12 10 13 8 9 14 15 14 9 7 5 4 5 11 14 16 18 19 24
9 8 8 10 9 7 6 7 8 9 9 8 9 10 9 9 8 11 14 13 15 13 11 11 16 17 14 10 9 8 7 8 9 14 15 17 19 21
10 10 8 9 10 10 9 10 9 10 11 11 12 10 12 12 11 10 11 15 17 11 11 14 15 15 14 13 11 9 11 10 12 12 16 19 20 20
12 11 11 10 10 12 12 12 12 11 11 11 12 11 13 12 12 13 14 14 15 13 16 20 17 16 12 11 9 11 11 14 14 15 15 16 21 22
11 11 11 11 10 8 10 12 14 14 15 15 15 15 14 14 14 15 15 15 16 17 16 19 15 16 13 11 11 13 12 13 15 17 19 18 18 22
10 11 12 11 10 15 13 13 14 14 15 15 15 17 16 15 14 15 15 16 17 16 11 13 14 15 14 13 14 13 10 8 9 13 18 22 22 23
4 8 10 8 13 15 13 13 14 15 14 16 18 19 20 19 16 16 16 17 20 19 12 13 16 15 15 17 13 12 11 12 12 11 13 18 24 24
6 3 2 3 6 9 9 9 11 11 10 12 14 15 16 18 20 20 19 20 21 20 13 10 16 15 12 12 9 9 9 17 21 21 19 19 20 28
4 6 6 8 9 9 10 10 11 15 15 14 14 15 14 13 13 13 14 16 20 24 20 18 19 18 17 21 18 17 18 19 19 18 21 22 23 25
6 6 7 9 10 10 10 12 13 14 11 11 13 13 14 14 13 13 14 16 19 23 23 20 21 21 21 23 24 22 21 21 20 21 21 21 25 27
6 8 11 12 9 11 12 12 10 9 9 10 11 11 12 13 14 15 13 14 17 19 19 19 21 22 22 23 25 25 24 23 21 22 21 19 20 20
13 12 10 9 10 11 11 10 9 9 9 9 9 12 13 13 14 14 16 17 15 16 18 18 18 20 22 24 23 25 24 17 21 23 23 23 22 21
16 10 12 11 10 11 12 11 8 8 7 8 10 10 11 12 12 13 15 16 17 17 16 17 20 21 21 24 26 24 26 23 23 23 22 24 24 23
12 12 12 12 13 13 13 14 12 10 9 10 9 10 11 12 13 14 14 15 16 18 19 20 24 25 24 22 19 23 23 23 24 23 23 25 27 26
9 10 12 13 14 15 15 14 12 11 11 11 11 12 12 13 14 15 14 14 16 17 20 21 20 19 17 12 22 14 20 24 25 28 26 27 29 31
10 11 12 12 12 12 12 12 12 13 12 12 14 14 13 14 16 15 15 15 17 18 20 20 19 18 19 18 24 37 26 21 22 26 29 29 32 33
11 12 13 15 16 15 15 13 13 13 13 13 14 13 13 14 16 17 19 18 18 19 21 22 22 25 24 25 24 28 28 25 26 28 29 28 30 31
13 13 14 15 14 15 15 16 16 15 15 15 16 16 15 15 17 18 19 21 21 21 23 25 25 25 25 24 27 31 33 30 29 31 31 31 31 16
15 16 17 18 18 20 21 18 18 19 18 19 19 19 19 18 18 20 21 22 23 24 25 28 28 26 26 26 28 32 34 35 31 30 33 30 31 36
Wind_Direction
273 299 77 91 87 76 62 29 351 334 341 336 334 343 347 346 2 2 7 10 8 7 6 19 27 27 31 43 75 144 169 185 176 188 184 177 184 179
232 229 211 253 222 192 194 230 285 300 307 315 322 324 335 338 334 350 351 360 356 356 359 16 25 19 23 31 47 138 182 192 191 195 198 189 189 190
239 235 238 248 247 245 250 266 272 273 298 316 318 330 344 339 345 346 341 349 350 3 24 33 15 14 13 13 21 45 191 198 205 205 203 204 195 196
235 241 247 247 251 251 258 255 259 266 290 302 319 329 329 341 341 350 353 353 6 1 34 26 14 7 359 348 345 348 291 204 206 214 210 212 205 202
241 245 254 244 253 243 241 250 258 268 274 283 305 312 318 328 339 342 349 353 359 353 338 341 349 349 347 329 305 293 266 222 211 217 223 217 213 207
253 250 253 255 264 272 270 278 291 293 300 297 298 309 309 323 335 336 341 340 334 339 332 328 327 337 341 330 303 271 253 240 221 217 228 225 222 220
259 259 255 257 267 270 272 279 284 282 286 291 296 296 305 318 326 326 322 325 325 316 326 327 322 323 322 318 327 284 257 246 235 233 223 227 227 227
253 255 263 266 274 279 275 277 272 270 272 285 291 296 298 300 307 309 312 312 311 311 317 315 316 313 313 308 297 325 280 253 250 242 237 231 231 232
268 274 275 272 273 272 274 271 266 265 265 269 271 278 286 290 295 299 300 297 293 299 299 301 308 303 309 302 302 309 299 262 259 257 246 241 239 239
264 269 270 272 276 270 274 275 272 270 271 271 265 274 278 284 285 288 288 290 293 295 285 289 307 294 300 296 301 305 278 259 270 275 260 248 248 247
284 270 271 271 260 271 272 270 275 278 282 286 277 274 280 281 282 285 285 292 294 298 290 272 297 299 295 291 285 289 266 261 263 296 287 270 254 252
53 18 8 328 309 309 306 301 286 283 294 292 288 288 288 283 284 277 278 282 290 296 299 266 288 301 297 287 287 284 270 279 282 281 280 278 269 252
33 7 2 344 333 329 324 314 300 297 303 299 294 293 291 290 289 284 279 276 282 282 284 290 288 290 276 282 286 285 284 282 283 281 279 275 270 263
336 341 339 343 345 339 339 322 312 309 305 303 301 302 305 305 302 297 293 287 277 275 284 284 281 285 289 289 288 291 285 281 281 280 278 274 277 268
338 324 321 320 329 336 337 337 342 322 311 309 310 311 312 311 313 309 308 302 297 294 293 284 273 280 279 276 284 287 291 289 283 276 277 274 270 274
359 353 341 335 339 328 340 338 335 329 321 313 308 309 310 314 313 311 310 316 310 306 301 300 293 284 280 281 283 284 286 282 286 284 281 278 276 270
342 337 337 343 344 334 328 321 317 298 314 322 325 323 323 325 326 327 320 316 308 320 324 320 312 311 302 292 284 282 286 283 280 283 286 282 278 276
334 329 326 324 321 317 313 307 300 304 314 320 316 318 322 324 324 328 325 323 320 317 314 314 317 320 312 301 285 278 284 287 292 293 286 282 284 281
330 322 318 321 320 317 315 311 307 308 315 313 311 312 314 314 318 320 321 321 319 321 319 318 319 315 313 314 316 309 313 306 303 298 294 292 290 285
337 330 322 319 324 322 320 315 313 307 309 309 309 311 311 310 311 312 313 315 316 318 315 317 319 323 321 306 298 297 297 285 294 295 294 295 291 293
329 323 318 313 310 308 310 310 310 308 309 306 301 303 307 312 310 310 308 308 309 308 308 309 312 310 308 304 293 291 294 287 287 283 289 293 292 295
327 318 311 313 325 316 306 302 301 301 305 305 304 304 302 304 304 305 303 304 302 300 298 300 306 309 307 302 298 297 296 297 291 285 279 278 278 280
318 315 315 309 304 307 308 300 298 297 297 299 300 300 300 300 299 298 297 296 295 296 297 298 301 301 297 296 296 295 295 295 295 293 288 284 282 284